Weather History for Aktion, Greece

Change the Weather History Date:

Tuesday, December 10, 2013

  Actual Average Record
Temperature  
Mean Temperature 52 °F -  
Max Temperature 62 °F 54 °F 68 °F (1999)
Min Temperature 43 °F 44 °F 33 °F (1998)
Degree Days  
Heating Degree Days 12    
Growing Degree Days 2 (Base 50)    
Moisture  
Dew Point 41 °F    
Average Humidity 64    
Maximum Humidity 93    
Minimum Humidity 36    
Precipitation  
Precipitation 0.00 in - - ()
Sea Level Pressure  
Sea Level Pressure 30.27 in    
Wind  
Wind Speed 4 mph ()    
Max Wind Speed 16 mph    
Max Gust Speed -    
Visibility 6.2 miles    
Events      
Averages and records for this station are not official NWS values.
T = Trace of Precipitation, MM = Missing Value Source: Averaged Metar Reports

Daily Weather History Graph

Daily Weather History Graph

Search for Another Location

Airport:

Trip Planner

Search our weather history database for the weather conditions in past years. The results will help you decide how hot, cold, wet, or windy it might be!

Date:

Astronomy

Dec. 10, 2013 Rise Set
Actual Time 7:44 AM EET 5:14 PM EET
Civil Twilight 7:14 AM EET 5:44 PM EET
Nautical Twilight 6:41 AM EET 6:18 PM EET
Astronomical Twilight 6:09 AM EET 6:50 PM EET
Moon 1:03 PM EET (12/10) 12:46 AM EET (12/10)
Length of Visible Light 10h 29m
Length of Day
9h 30m
First Quarter, 58% of the Moon is Illuminated
Dec 10
First Quarter
Dec 17
Full
Dec 25
Last Quarter
Jan 1
New
Jan 8
First Quarter

Hourly Weather History & Observations

Time (EET) Temp. Windchill Dew Point Humidity Pressure Visibility Wind Dir Wind Speed Gust Speed Precip Events Conditions
12:20 AM 50.0 °F - 44.6 °F 82% 30.33 in - Variable 1.2 mph - N/A   Unknown
12:50 AM 48.2 °F - 44.6 °F 87% 30.33 in - ENE 4.6 mph - N/A   Unknown
1:20 AM 50.0 °F - 44.6 °F 82% 30.33 in - Variable 3.5 mph - N/A   Unknown
1:50 AM 48.2 °F - 42.8 °F 82% 30.33 in - Variable 2.3 mph - N/A   Unknown
2:00 AM 49 °F - 44 °F 76% 30.34 in - 2.3 mph - -  
2:20 AM 48.2 °F - 44.6 °F 87% 30.30 in - Variable 1.2 mph - N/A   Unknown
2:50 AM 48.2 °F - 44.6 °F 87% 30.30 in - Variable 3.5 mph - N/A   Unknown
3:20 AM 48.2 °F - 44.6 °F 87% 30.30 in - Variable 3.5 mph - N/A   Unknown
3:50 AM 48.2 °F - 42.8 °F 82% 30.30 in - ENE 5.8 mph - N/A   Unknown
4:20 AM 46.4 °F - 42.8 °F 87% 30.27 in - Variable 2.3 mph - N/A   Unknown
4:50 AM 46.4 °F - 42.8 °F 87% 30.27 in 6.2 mi Calm Calm - N/A   Partly Cloudy
5:20 AM 44.6 °F - 42.8 °F 93% 30.27 in 6.2 mi Calm Calm - N/A   Partly Cloudy
5:50 AM 48.2 °F - 42.8 °F 82% 30.27 in 6.2 mi ENE 5.8 mph - N/A   Scattered Clouds
6:20 AM 48.2 °F - 42.8 °F 82% 30.27 in 6.2 mi East 6.9 mph - N/A   Scattered Clouds
6:50 AM 44.6 °F - 42.8 °F 93% 30.27 in 6.2 mi Calm Calm - N/A   Partly Cloudy
7:20 AM 44.6 °F 43.1 °F 41.0 °F 87% 30.27 in 6.2 mi Variable 3.5 mph - N/A   Partly Cloudy
7:50 AM 46.4 °F 43.5 °F 42.8 °F 87% 30.27 in 6.2 mi ENE 5.8 mph - N/A   Partly Cloudy
8:00 AM 46 °F - 42 °F 82% 30.30 in 6 mi ENE 5.8 mph - -   Scattered Clouds
8:20 AM 48.2 °F - 41.0 °F 76% 30.27 in 6.2 mi ENE 4.6 mph - N/A   Partly Cloudy
8:50 AM 50.0 °F - 42.8 °F 76% 30.27 in 6.2 mi East 3.5 mph - N/A   Partly Cloudy
9:20 AM 51.8 °F - 42.8 °F 71% 30.27 in 6.2 mi Calm Calm - N/A   Partly Cloudy
9:50 AM 51.8 °F - 42.8 °F 71% 30.27 in 6.2 mi Calm Calm - N/A   Partly Cloudy
10:20 AM 53.6 °F - 41.0 °F 62% 30.27 in 6.2 mi East 5.8 mph - N/A   Partly Cloudy
10:50 AM 55.4 °F - 41.0 °F 58% 30.27 in 6.2 mi ENE 8.1 mph - N/A   Partly Cloudy
11:20 AM 57.2 °F - 41.0 °F 55% 30.27 in 6.2 mi ENE 5.8 mph - N/A   Partly Cloudy
11:50 AM 57.2 °F - 39.2 °F 51% 30.24 in 6.2 mi Calm Calm - N/A   Partly Cloudy
12:20 PM 59.0 °F - 37.4 °F 45% 30.24 in 6.2 mi Calm Calm - N/A   Partly Cloudy
12:50 PM 60.8 °F - 39.2 °F 45% 30.24 in 6.2 mi WSW 3.5 mph - N/A   Partly Cloudy
1:20 PM 60.8 °F - 41.0 °F 48% 30.21 in 6.2 mi WSW 6.9 mph - N/A   Partly Cloudy
1:50 PM 62.6 °F - 41.0 °F 45% 30.21 in 6.2 mi West 4.6 mph - N/A   Partly Cloudy
2:00 PM 62 °F - 42 °F 36% 30.23 in 6 mi West 4.6 mph - -   Scattered Clouds
2:20 PM 62.6 °F - 41.0 °F 45% 30.21 in 6.2 mi WNW 9.2 mph - N/A   Partly Cloudy
2:50 PM 62.6 °F - 41.0 °F 45% 30.21 in 6.2 mi WNW 8.1 mph - N/A   Partly Cloudy
3:20 PM 62.6 °F - 42.8 °F 48% 30.21 in 6.2 mi WNW 5.8 mph - N/A   Partly Cloudy
3:50 PM 62.6 °F - 39.2 °F 42% 30.21 in 6.2 mi Calm Calm - N/A   Partly Cloudy
4:20 PM 60.8 °F - 39.2 °F 45% 30.21 in 6.2 mi NNW 5.8 mph - N/A   Partly Cloudy
4:50 PM 60.8 °F - 39.2 °F 45% 30.21 in 6.2 mi NNW 6.9 mph - N/A   Partly Cloudy
5:20 PM 57.2 °F - 37.4 °F 48% 30.21 in 6.2 mi North 4.6 mph - N/A   Partly Cloudy
5:50 PM 57.2 °F - 39.2 °F 51% 30.24 in 6.2 mi NNW 5.8 mph - N/A   Partly Cloudy
6:20 PM 55.4 °F - 39.2 °F 54% 30.24 in 6.2 mi NNW 5.8 mph - N/A   Partly Cloudy
6:50 PM 55.4 °F - 37.4 °F 51% 30.24 in 6.2 mi North 3.5 mph - N/A   Partly Cloudy
7:20 PM 51.8 °F - 44.6 °F 76% 30.27 in 6.2 mi ENE 3.5 mph - N/A   Partly Cloudy
7:50 PM 55.4 °F - 39.2 °F 54% 30.27 in 6.2 mi ENE 5.8 mph - N/A   Partly Cloudy
8:00 PM 55 °F - 38 °F 42% 30.30 in 6 mi ENE 5.8 mph - -   Scattered Clouds
8:50 PM 55.4 °F - 32.0 °F 41% 30.30 in 6.2 mi NE 8.1 mph - N/A   Partly Cloudy
9:50 PM 53.6 °F - 33.8 °F 47% 30.33 in - NE 11.5 mph - N/A   Unknown
10:20 PM 53.6 °F - 33.8 °F 47% 30.36 in - NE 11.5 mph - N/A   Unknown
10:50 PM 51.8 °F - 35.6 °F 54% 30.36 in - NE 10.4 mph - N/A   Unknown
11:20 PM 51.8 °F - 33.8 °F 50% 30.36 in - NE 16.1 mph - N/A   Unknown
11:50 PM 51.8 °F - 30.2 °F 44% 30.39 in - East 13.8 mph - N/A   Unknown